Regional Weather Roundup
Issued by NWS

Home | Current Version | Previous Version | Text Only | Print | Product List | Glossary On
Versions: 1 2 3 4 5 6 7 8 9 10 11 12 13 14 15 16 17 18 19 20 21 22 23 24 25 26 27
000
ASUS42 KKEY 230710
RWRKEY

FLORIDA REGIONAL WEATHER ROUNDUP FOR THE FLORIDA KEYS
NATIONAL WEATHER SERVICE KEY WEST FLORIDA
200 AM EST MON JAN 23 2017

...SOUTH FLORIDA AND THE KEYS...

CITY           SKY/WX    TMP DP  RH WIND       PRES   REMARKS
FORT MYERS     CLOUDY    73  61  65 W15       29.54F
SW REGIONAL AP CLOUDY    73  60  63 W12       29.55F
NAPLES         CLOUDY    73  32  22 W15G28    29.56S
MIAMI          CLOUDY    80  71  74 S22G37    29.56F
WEST KENDALL   CLOUDY    79  71  76 SW16G28   29.56F
HOMESTEAD      MOCLDY    77  76  97 S21G30    29.58F
MARATHON       PTCLDY    81  73  76 SW16G28   29.61F
BOCA CHICA NAS MOCLDY    78  72  81 SW30G37   29.61F
KEY WEST INTL  MOCLDY    78  74  87 SW24G36   29.60

...INTERNATIONAL WEATHER...

CITY           SKY/WX    TMP DP  RH WIND       PRES   REMARKS
NASSAU BAHAMAS PTCLDY    75  68  78 S20       29.71F
CANCUN MEXICO  PTCLDY    70  68  94 W6        29.85S
COZUMEL MEXICO PTCLDY    75  70  83 NW21      29.83S

ADJACENT COASTAL WATERS...

STATION/POSITION TIME  SKY/WX   TEMP    WIND        PRES    WAVE
                                AIR SEA DIR/SP/G            HT/PER
                 (UTC)          (F)     (DEG/KT/KT) (MB)    (FT/S)
PULASKI SHOAL LI 0700            76     290/ 22/ 25 1002.8R
SAND KEY         0650            78     220/ 31/ 37 1003.0F
LONG KEY         0600            78 76  210/ 26/ 29 1003.3F
MOLASSES REEF    NOT AVBL
FOWEY ROCKS      0600            76 74  190/ 34/ 39 1002.6F

$$




USA.gov is the U.S. government's official web portal to all federal, state and local government web resources and services.